Home > Weather > Minamisōma > Past weeks

Flag for Japan Past Weather in Minamisōma, Japan — Yesterday and Last 2 Weeks

Now
75 °F

Passing clouds.


Feels Like: 75 °F
Forecast: 71 / 85 °F
Wind: 10 mph from South

Location: Sendai Airport

Current Time: Jul 28, 2016 at 12:33:22 AM

Latest Report: Jul 27, 2016 at 9:00 PM


Visibility: N/A

Pressure: 29.83 "Hg

Humidity: 83%

Dew Point: 70 °F

Location of MinamisōmaLocation

Past Weather in Minamisōma — Graph

°F

Minamisōma Temperature Yesterday

Maximum temperature yesterday: 79 °F (at 12:00 PM)
Minimum temperature yesterday: 73 °F (at 6:00 AM)
Average temperature yesterday: 76 °F

High & Low Weather Summary for the Past Weeks

 TemperatureHumidityPressure
High84 °F (Jul 18, 12:00 PM)94% (Jul 13, 3:00 PM)30.04 "Hg (Jul 13, 3:00 PM)
Low66 °F (Jul 23, 6:00 AM)57% (Jul 22, 8:00 AM)29.39 "Hg (Jul 14, 12:00 PM)
Average74 °F78%29.80 "Hg
* Reported Jul 12 9:00 PM — Jul 27 9:00 PM, Minamisōma, Weather by CustomWeather, © 2016

Note: Actual official high and low records may vary slightly from our data, if they occured in-between our weather recording intervals... More about our weather records

Advertising

Minamisōma Weather History for the Previous 24 Hours

Scroll right to see more
 ConditionsComfort  
Time TempWeatherWind HumidityBarometerVisibility
9:00 PM
Wed, Jul 27
75 °FPassing clouds.10 mph83%29.83 "HgN/A
8:00 PM75 °FSprinkles. Partly cloudy.10 mph83%29.83 "Hg4 mi
7:00 PM75 °FPartly cloudy.8 mph83%29.80 "Hg5 mi
6:00 PM75 °FBroken clouds.9 mph83%29.80 "Hg5 mi
5:00 PM77 °FBroken clouds.13 mph79%29.80 "HgN/A
4:00 PM77 °FBroken clouds.14 mph79%29.80 "Hg5 mi
3:00 PM77 °FBroken clouds.12 mph79%29.80 "HgN/A
2:00 PM79 °FBroken clouds.13 mph74%29.80 "HgN/A
1:00 PM79 °FPartly sunny.13 mph74%29.80 "HgN/A
12:00 PM79 °FBroken clouds.12 mph79%29.83 "HgN/A
11:00 AM77 °FBroken clouds.9 mph83%29.83 "HgN/A
10:00 AM75 °FBroken clouds.9 mph83%29.83 "HgN/A
9:00 AM75 °FPartly sunny.9 mph83%29.83 "HgN/A
8:00 AM75 °FPartly sunny.9 mph83%29.83 "Hg4 mi
7:00 AM73 °FBroken clouds.9 mph89%29.83 "Hg5 mi
6:00 AM73 °FBroken clouds.10 mph89%29.83 "Hg4 mi
Weather by CustomWeather, © 2016

See weather overviewHow to use our weather pages